When you browse on this site, cookies collect data to enhance your experience and personalize the content and advertising you see.
Visit our Privacy Policy to learn more. By continuing to use the site, you agree to this use of cookies and data.
  • în România
  • Lista ţărilor
  • Pe 7 zile
  • Temperatura apei
  • Meteo pe hartă
  • Widget-uri
  • user-avatar
    Intrare

    Meteo pe oră la Salamanca

    Astăzi, 22 Noiembrie, Vineri

    Timp Temperatura Precipitaţii Vânt Presiune Umiditate
    00:00 +5°C° 0 mm 5 m/s 684 mmHg 88%
    01:00 +5°C° 0 mm 5 m/s 683 mmHg 88%
    02:00 +4°C° 0 mm 6 m/s 682 mmHg 89%
    03:00 +5°C° 0 mm 6 m/s 681 mmHg 89%
    04:00 +5°C° 1.1 mm 7 m/s 680 mmHg 89%
    05:00 +5°C° 1.1 mm 7 m/s 680 mmHg 89%
    06:00 +5°C° 1.1 mm 8 m/s 679 mmHg 90%
    07:00 +6°C° 0.4 mm 9 m/s 678 mmHg 87%
    08:00 +6°C° 0.4 mm 10 m/s 677 mmHg 85%
    09:00 +7°C° 0.4 mm 10 m/s 676 mmHg 83%
    10:00 +7°C° 0.5 mm 10 m/s 676 mmHg 84%
    11:00 +8°C° 0.5 mm 9 m/s 675 mmHg 85%
    12:00 +10°C° 0.5 mm 8 m/s 674 mmHg 85%
    13:00 +8°C° 1.3 mm 9 m/s 674 mmHg 84%
    14:00 +8°C° 1.3 mm 10 m/s 673 mmHg 82%
    15:00 +8°C° 1.3 mm 11 m/s 673 mmHg 81%
    16:00 +7°C° 0.5 mm 10 m/s 673 mmHg 83%
    17:00 +6°C° 0.5 mm 10 m/s 673 mmHg 85%
    18:00 +6°C° 0.5 mm 10 m/s 674 mmHg 87%
    19:00 +6°C° 0.6 mm 10 m/s 674 mmHg 86%
    20:00 +6°C° 0.6 mm 11 m/s 674 mmHg 86%
    21:00 +5°C° 0.6 mm 12 m/s 674 mmHg 85%
    22:00 +6°C° 0.3 mm 11 m/s 675 mmHg 84%
    23:00 +4°C° 0.3 mm 11 m/s 675 mmHg 84%

    Mâine, 23 Noiembrie, Sâmbătă

    Timp Temperatura Precipitaţii Vânt Presiune Umiditate
    00:00 +5°C° 0.3 mm 10 m/s 676 mmHg 84%
    01:00 +3°C° 0.1 mm 10 m/s 677 mmHg 83%
    02:00 +2°C° 0.1 mm 9 m/s 677 mmHg 83%
    03:00 +1°C° 0.1 mm 9 m/s 678 mmHg 83%
    04:00 +1°C° 0 mm 9 m/s 679 mmHg 84%
    05:00 +1°C° 0 mm 8 m/s 680 mmHg 86%
    06:00 +1°C° 0 mm 8 m/s 681 mmHg 88%
    07:00 +1°C° 0 mm 8 m/s 682 mmHg 87%
    08:00 +2°C° 0 mm 8 m/s 682 mmHg 86%
    09:00 +3°C° 0 mm 7 m/s 683 mmHg 85%
    10:00 +4°C° 0 mm 8 m/s 684 mmHg 80%
    11:00 +5°C° 0 mm 8 m/s 684 mmHg 75%
    12:00 +6°C° 0 mm 8 m/s 684 mmHg 70%
    13:00 +6°C° 0.1 mm 8 m/s 685 mmHg 69%
    14:00 +6°C° 0.1 mm 7 m/s 685 mmHg 69%
    15:00 +6°C° 0.1 mm 7 m/s 685 mmHg 69%
    16:00 +5°C° 0 mm 6 m/s 686 mmHg 74%
    17:00 +4°C° 0 mm 6 m/s 686 mmHg 80%
    18:00 +3°C° 0 mm 5 m/s 687 mmHg 85%
    19:00 +3°C° 0 mm 5 m/s 687 mmHg 87%
    20:00 +2°C° 0 mm 5 m/s 688 mmHg 90%
    21:00 +2°C° 0 mm 5 m/s 689 mmHg 92%
    22:00 +3°C° 0 mm 4 m/s 689 mmHg 93%
    23:00 +1°C° 0 mm 4 m/s 689 mmHg 94%

    Poimâine, 24 Noiembrie, Duminică

    Timp Temperatura Precipitaţii Vânt Presiune Umiditate
    00:00 +1°C° 0 mm 4 m/s 689 mmHg 95%
    01:00 +1°C° 0 mm 4 m/s 690 mmHg 95%
    02:00 0°C° 0 mm 4 m/s 690 mmHg 95%
    03:00 +1°C° 0 mm 3 m/s 690 mmHg 95%
    04:00 +1°C° 0 mm 3 m/s 690 mmHg 95%
    05:00 +1°C° 0 mm 3 m/s 690 mmHg 94%
    06:00 0°C° 0 mm 4 m/s 690 mmHg 94%
    07:00 +1°C° 0 mm 4 m/s 691 mmHg 92%
    08:00 +3°C° 0 mm 4 m/s 692 mmHg 90%
    09:00 +5°C° 0 mm 5 m/s 692 mmHg 88%
    10:00 +6°C° 0 mm 5 m/s 692 mmHg 85%
    11:00 +7°C° 0 mm 5 m/s 692 mmHg 81%
    12:00 +8°C° 0 mm 6 m/s 693 mmHg 78%
    13:00 +9°C° 0 mm 5 m/s 692 mmHg 76%
    14:00 +9°C° 0 mm 5 m/s 692 mmHg 74%
    15:00 +10°C° 0 mm 5 m/s 692 mmHg 72%
    16:00 +9°C° 0 mm 5 m/s 692 mmHg 76%
    17:00 +8°C° 0 mm 5 m/s 692 mmHg 79%
    18:00 +7°C° 0 mm 5 m/s 692 mmHg 83%
    19:00 +8°C° 0 mm 5 m/s 692 mmHg 84%
    20:00 +8°C° 0 mm 6 m/s 692 mmHg 86%
    21:00 +8°C° 0 mm 6 m/s 692 mmHg 87%
    22:00 +8°C° 0 mm 6 m/s 692 mmHg 89%
    23:00 +8°C° 0 mm 6 m/s 692 mmHg 91%

    25 Noiembrie, Luni

    Timp Temperatura Precipitaţii Vânt Presiune Umiditate
    00:00 +8°C° 0 mm 6 m/s 692 mmHg 92%
    01:00 +9°C° 0 mm 6 m/s 692 mmHg 92%
    02:00 +9°C° 0 mm 6 m/s 692 mmHg 92%
    03:00 +9°C° 0 mm 6 m/s 692 mmHg 91%
    04:00 +9°C° 0 mm 6 m/s 692 mmHg 92%
    05:00 +9°C° 0 mm 6 m/s 692 mmHg 93%
    06:00 +9°C° 0 mm 6 m/s 692 mmHg 94%
    07:00 +9°C° 0 mm 6 m/s 693 mmHg 93%
    08:00 +10°C° 0 mm 6 m/s 693 mmHg 92%
    09:00 +10°C° 0 mm 6 m/s 693 mmHg 91%
    10:00 +11°C° 0.1 mm 6 m/s 694 mmHg 86%
    11:00 +13°C° 0.1 mm 6 m/s 694 mmHg 80%
    12:00 +14°C° 0.1 mm 7 m/s 694 mmHg 74%
    13:00 +14°C° 0.1 mm 6 m/s 694 mmHg 75%
    14:00 +14°C° 0.1 mm 6 m/s 694 mmHg 75%
    15:00 +13°C° 0.1 mm 6 m/s 693 mmHg 76%
    16:00 +13°C° 0 mm 5 m/s 693 mmHg 80%
    17:00 +12°C° 0 mm 4 m/s 693 mmHg 84%
    18:00 +11°C° 0 mm 4 m/s 693 mmHg 88%
    19:00 +11°C° 0 mm 4 m/s 693 mmHg 90%
    20:00 +10°C° 0 mm 4 m/s 693 mmHg 92%
    21:00 +10°C° 0 mm 4 m/s 693 mmHg 94%
    22:00 +10°C° 0 mm 4 m/s 693 mmHg 94%
    23:00 +10°C° 0 mm 4 m/s 693 mmHg 93%

    26 Noiembrie, Marţi

    Timp Temperatura Precipitaţii Vânt Presiune Umiditate
    00:00 +9°C° 0 mm 5 m/s 693 mmHg 93%
    01:00 +10°C° 0.4 mm 5 m/s 692 mmHg 93%
    02:00 +10°C° 0.4 mm 5 m/s 692 mmHg 94%
    03:00 +12°C° 0.4 mm 5 m/s 692 mmHg 94%
    04:00 +11°C° 0.2 mm 6 m/s 692 mmHg 93%
    05:00 +11°C° 0.2 mm 6 m/s 691 mmHg 93%
    06:00 +11°C° 0.2 mm 7 m/s 691 mmHg 92%
    07:00 +11°C° 0.1 mm 7 m/s 691 mmHg 92%
    08:00 +12°C° 0.1 mm 7 m/s 691 mmHg 91%
    09:00 +12°C° 0.1 mm 8 m/s 691 mmHg 91%
    10:00 +12°C° 0 mm 8 m/s 691 mmHg 87%
    11:00 +13°C° 0 mm 9 m/s 691 mmHg 84%
    12:00 +13°C° 0 mm 9 m/s 691 mmHg 80%
    13:00 +13°C° 0 mm 9 m/s 690 mmHg 82%
    14:00 +12°C° 0 mm 9 m/s 690 mmHg 83%
    15:00 +12°C° 0 mm 8 m/s 689 mmHg 84%
    16:00 +12°C° 0 mm 8 m/s 689 mmHg 85%
    17:00 +12°C° 0 mm 8 m/s 689 mmHg 86%
    18:00 +12°C° 0 mm 8 m/s 689 mmHg 86%
    19:00 +12°C° 0 mm 8 m/s 689 mmHg 87%
    20:00 +12°C° 0 mm 8 m/s 689 mmHg 87%
    21:00 +12°C° 0 mm 9 m/s 689 mmHg 87%
    22:00 +12°C° 0.1 mm 9 m/s 689 mmHg 88%
    23:00 +11°C° 0.1 mm 8 m/s 689 mmHg 89%

    27 Noiembrie, Miercuri

    Timp Temperatura Precipitaţii Vânt Presiune Umiditate
    00:00 +11°C° 0.1 mm 8 m/s 689 mmHg 90%
    01:00 +11°C° 0.7 mm 8 m/s 689 mmHg 90%
    02:00 +12°C° 0.7 mm 8 m/s 689 mmHg 90%
    03:00 +12°C° 0.7 mm 8 m/s 689 mmHg 90%
    04:00 +11°C° 0.2 mm 7 m/s 689 mmHg 91%
    05:00 +11°C° 0.2 mm 6 m/s 689 mmHg 92%
    06:00 +12°C° 0.2 mm 5 m/s 689 mmHg 92%
    07:00 +10°C° 0.1 mm 5 m/s 689 mmHg 90%
    08:00 +9°C° 0.1 mm 6 m/s 690 mmHg 88%
    09:00 +9°C° 0.1 mm 6 m/s 690 mmHg 86%
    10:00 +9°C° 0 mm 6 m/s 690 mmHg 81%
    11:00 +9°C° 0 mm 6 m/s 690 mmHg 77%
    12:00 +10°C° 0 mm 5 m/s 691 mmHg 72%
    13:00 +10°C° 0 mm 5 m/s 690 mmHg 72%
    14:00 +10°C° 0 mm 5 m/s 690 mmHg 72%
    15:00 +10°C° 0 mm 5 m/s 690 mmHg 72%
    16:00 +10°C° 0 mm 4 m/s 691 mmHg 77%
    17:00 +8°C° 0 mm 4 m/s 691 mmHg 82%
    18:00 +9°C° 0 mm 3 m/s 691 mmHg 86%
    19:00 +9°C° 0 mm 3 m/s 692 mmHg 88%
    20:00 +8°C° 0 mm 3 m/s 692 mmHg 89%
    21:00 +8°C° 0 mm 3 m/s 693 mmHg 90%
    22:00 +8°C° 0 mm 3 m/s 693 mmHg 91%
    23:00 +8°C° 0 mm 3 m/s 693 mmHg 92%
    Arată mai mult